Grand Forks AFB, ND

5:23 AM CDT on July 23, 2017 (GMT -0500)
Grand Forks Air Force Base

Weather History for KRDR - November, 2012

Change the Weather History Date:

Wednesday, November 14, 2012

  Actual Average Record
Temperature  
Mean Temperature 22 °F -  
Max Temperature 35 °F 34 °F 62 °F (2001)
Min Temperature 10 °F 16 °F 0 °F (1996)
Degree Days  
Heating Degree Days 42    
Moisture  
Dew Point 25 °F    
Average Humidity 92    
Maximum Humidity 100    
Minimum Humidity 81    
Precipitation  
Precipitation 0.01 in - - ()
Sea Level Pressure  
Sea Level Pressure 30.07 in    
Wind  
Wind Speed 5 mph (South)    
Max Wind Speed 15 mph    
Max Gust Speed -    
Visibility 5 miles    
Events Fog    
Averages and records for this station are not official NWS values.
T = Trace of Precipitation, MM = Missing Value Source: NWS Daily Summary

Daily Weather History Graph

Daily Weather History Graph

Search for Another Location

Airport or City:

Trip Planner

Search our weather history database for the weather conditions in past years. The results will help you decide how hot, cold, wet, or windy it might be!

Date:

Astronomy

Nov. 14, 2012 Rise Set
Actual Time 7:35 AM CST 4:52 PM CST
Civil Twilight 7:01 AM CST 5:26 PM CST
Nautical Twilight 6:23 AM CST 6:04 PM CST
Astronomical Twilight 5:47 AM CST 6:40 PM CST
Moon 8:30 AM CST (11/14) 5:37 PM CST (11/14)
Length of Visible Light 10h 25m
Length of Day
9h 17m
New Moon, 1% of the Moon is Illuminated
Nov 14
New Moon
Nov 20
First Quarter
Nov 28
Full
Dec 6
Last Quarter
Dec 13
New

Hourly Weather History & Observations

Time (CST) Temp. Windchill Dew Point Humidity Pressure Visibility Wind Dir Wind Speed Gust Speed Precip Events Conditions
12:55 AM 12.4 °F - 9.1 °F 87% 30.24 in 10.0 mi Calm Calm - N/A   Mostly Cloudy
1:55 AM 12.6 °F 6.5 °F 9.3 °F 87% 30.25 in 10.0 mi NNW 3.5 mph - N/A   Mostly Cloudy
2:55 AM 12.0 °F - 9.0 °F 88% 30.25 in 10.0 mi Calm Calm - N/A   Clear
3:55 AM 10.2 °F - 7.0 °F 87% 30.24 in 10.0 mi Calm Calm - N/A   Clear
4:55 AM 11.1 °F - 7.9 °F 87% 30.23 in 10.0 mi Calm Calm - N/A   Clear
5:55 AM 12.4 °F - 9.0 °F 86% 30.21 in 10.0 mi Calm Calm - N/A   Clear
6:55 AM 12.9 °F - 9.0 °F 84% 30.20 in 10.0 mi Calm Calm - N/A   Clear
7:55 AM 12.9 °F 6.9 °F 9.5 °F 86% 30.18 in 10.0 mi South 3.5 mph - N/A   Clear
8:55 AM 15.1 °F 7.7 °F 11.5 °F 86% 30.18 in 10.0 mi SSE 4.6 mph - N/A   Clear
9:55 AM 21.7 °F 14.3 °F 17.1 °F 82% 30.17 in 10.0 mi South 5.8 mph - N/A   Clear
10:55 AM 27.0 °F 18.0 °F 22.6 °F 84% 30.15 in 9.0 mi South 9.2 mph - N/A   Clear
11:55 AM 29.5 °F 22.5 °F 25.7 °F 86% 30.13 in 9.0 mi South 6.9 mph - N/A   Clear
12:55 PM 31.5 °F 22.9 °F 27.9 °F 87% 30.10 in 10.0 mi South 10.4 mph - N/A   Clear
1:39 PM 32.0 °F 23.6 °F 28.4 °F 87% 30.09 in 9.0 mi South 10.4 mph - N/A   Partly Cloudy
1:48 PM 32.0 °F 23.6 °F 28.4 °F 87% 30.08 in 7.0 mi South 10.4 mph - N/A   Mostly Cloudy
1:55 PM 31.8 °F 23.9 °F 29.1 °F 90% 30.09 in 6.0 mi South 9.2 mph - N/A   Mostly Cloudy
2:08 PM 30.2 °F 21.3 °F 28.4 °F 93% 30.08 in 7.0 mi SSW 10.4 mph - N/A   Mostly Cloudy
2:11 PM 30.2 °F 20.8 °F 28.4 °F 93% 30.08 in 6.0 mi SSW 11.5 mph - N/A   Mostly Cloudy
2:25 PM 30.2 °F 20.2 °F 28.4 °F 93% 30.08 in 6.0 mi South 12.7 mph - N/A   Overcast
2:55 PM 30.7 °F 22.6 °F 28.9 °F 93% 30.07 in 6.0 mi SSW 9.2 mph - N/A   Overcast
3:54 PM 32.0 °F 26.4 °F 30.2 °F 93% 30.06 in 8.0 mi South 5.8 mph - N/A   Scattered Clouds
3:55 PM 32.2 °F 27.7 °F 30.2 °F 92% 30.06 in 8.0 mi South 4.6 mph - N/A   Mostly Cloudy
4:14 PM 32.0 °F 25.6 °F 30.2 °F 93% 30.06 in 7.0 mi SSE 6.9 mph - N/A   Partly Cloudy
4:23 PM 32.0 °F 26.4 °F 30.2 °F 93% 30.05 in 4.0 mi SSE 5.8 mph - N/A   Mostly Cloudy
4:35 PM 30.2 °F 23.4 °F 28.4 °F 93% 30.05 in 2.5 mi South 6.9 mph - N/A   Mostly Cloudy
4:37 PM 30.2 °F 23.4 °F 28.4 °F 93% 30.05 in 1.8 mi SSE 6.9 mph - N/A   Mostly Cloudy
4:39 PM 30.2 °F 23.4 °F 28.4 °F 93% 30.05 in 1.5 mi SSE 6.9 mph - N/A   Scattered Clouds
4:41 PM 30.2 °F 24.3 °F 28.4 °F 93% 30.05 in 1.2 mi SSE 5.8 mph - N/A   Scattered Clouds
4:43 PM 30.2 °F 23.4 °F 28.4 °F 93% 30.05 in 1.0 mi SSE 6.9 mph - N/A   Mist
4:50 PM 30.2 °F 23.4 °F 28.4 °F 93% 30.05 in 0.8 mi South 6.9 mph - N/A   Mist
4:53 PM 30.2 °F 24.3 °F 28.4 °F 93% 30.04 in 0.5 mi South 5.8 mph - N/A Fog Light Freezing Fog
4:55 PM 29.8 °F 23.9 °F 28.6 °F 95% 30.05 in 0.8 mi South 5.8 mph - N/A   Mist
4:56 PM 30.2 °F 23.4 °F 28.4 °F 93% 30.04 in 0.2 mi South 6.9 mph - N/A Fog Light Freezing Fog
4:59 PM 30.2 °F 24.3 °F 28.4 °F 93% 30.04 in 0.2 mi South 5.8 mph - N/A Fog Light Freezing Fog
5:01 PM 30.2 °F 24.3 °F 28.4 °F 93% 30.04 in 0.2 mi South 5.8 mph - N/A Fog Light Freezing Fog
5:03 PM 30.2 °F 24.3 °F 28.4 °F 93% 30.04 in 0.2 mi South 5.8 mph - N/A Fog Light Freezing Fog
5:19 PM 28.4 °F 22.2 °F 26.6 °F 93% 30.04 in 0.5 mi South 5.8 mph - N/A Fog Light Freezing Fog
5:29 PM 28.4 °F 22.2 °F 26.6 °F 93% 30.03 in 0.5 mi South 5.8 mph - N/A Fog Light Freezing Fog
5:31 PM 28.4 °F 22.2 °F 26.6 °F 93% 30.03 in 0.8 mi South 5.8 mph - N/A   Clear
5:37 PM 26.6 °F 21.2 °F 26.6 °F 100% 30.03 in 0.5 mi South 4.6 mph - N/A Fog Light Freezing Fog
5:42 PM 26.6 °F 20.0 °F 26.6 °F 100% 30.03 in 0.5 mi South 5.8 mph - N/A Fog Light Freezing Fog
5:46 PM 26.6 °F 20.0 °F 26.6 °F 100% 30.03 in 0.5 mi South 5.8 mph - N/A Fog Light Freezing Fog
5:50 PM 26.6 °F 21.2 °F 26.6 °F 100% 30.03 in 0.8 mi South 4.6 mph - N/A   Partly Cloudy
5:51 PM 26.6 °F 21.2 °F 24.8 °F 93% 30.03 in 0.8 mi South 4.6 mph - N/A   Partly Cloudy
5:53 PM 26.6 °F 21.2 °F 24.8 °F 93% 30.03 in 1.0 mi South 4.6 mph - N/A   Scattered Clouds
5:56 PM 26.6 °F 21.2 °F 26.6 °F 100% 30.03 in 1.2 mi South 4.6 mph - N/A   Scattered Clouds
5:57 PM 26.6 °F 21.2 °F 26.6 °F 100% 30.03 in 1.5 mi South 4.6 mph - N/A   Scattered Clouds
6:00 PM 26.6 °F 21.2 °F 26.6 °F 100% 30.03 in 2.0 mi South 4.6 mph - N/A   Mostly Cloudy
6:03 PM 26.6 °F 21.2 °F 26.6 °F 100% 30.03 in 3.0 mi South 4.6 mph - N/A   Mostly Cloudy
6:13 PM 26.6 °F 21.2 °F 24.8 °F 93% 30.03 in 2.5 mi South 4.6 mph - N/A   Scattered Clouds
6:15 PM 26.6 °F 20.0 °F 24.8 °F 93% 30.03 in 1.8 mi South 5.8 mph - N/A   Scattered Clouds
6:18 PM 26.6 °F 19.1 °F 24.8 °F 93% 30.03 in 1.2 mi South 6.9 mph - N/A   Scattered Clouds
6:20 PM 26.6 °F 19.1 °F 24.8 °F 93% 30.03 in 1.5 mi South 6.9 mph - N/A   Scattered Clouds
6:24 PM 26.6 °F 19.1 °F 26.6 °F 100% 30.03 in 1.8 mi South 6.9 mph - N/A   Mostly Cloudy
6:26 PM 26.6 °F 19.1 °F 26.6 °F 100% 30.03 in 2.0 mi South 6.9 mph - N/A   Scattered Clouds
6:28 PM 26.6 °F 19.1 °F 24.8 °F 93% 30.02 in 3.0 mi South 6.9 mph - N/A   Scattered Clouds
6:30 PM 26.6 °F 20.0 °F 24.8 °F 93% 30.03 in 4.0 mi South 5.8 mph - N/A   Scattered Clouds
6:55 PM 27.1 °F 19.7 °F 25.7 °F 94% 30.03 in 7.0 mi SSW 6.9 mph - N/A   Clear
7:55 PM 27.7 °F 19.6 °F 26.6 °F 96% 30.02 in 8.0 mi South 8.1 mph - N/A   Clear
8:07 PM 30.2 °F 24.3 °F 28.4 °F 93% 30.02 in 7.0 mi SW 5.8 mph - N/A   Clear
8:55 PM 31.3 °F 24.7 °F 28.6 °F 90% 30.02 in 10.0 mi SW 6.9 mph - N/A   Clear
9:55 PM 34.0 °F 26.6 °F 30.7 °F 88% 30.01 in 10.0 mi SW 9.2 mph - N/A   Mostly Cloudy
10:55 PM 35.1 °F 25.5 °F 30.4 °F 83% 30.01 in 10.0 mi WSW 15.0 mph - N/A   Scattered Clouds
11:55 PM 34.9 °F 26.6 °F 29.5 °F 81% 30.03 in 10.0 mi West 11.5 mph - 0.01 in   Clear